Location: Antesica
(44.5667°N, 10.2167°E)
Time: 10:15:12
(UTC+00:00)

Daily predictions for brighter satellites

Satellite Brightness Start Highest point End
(mag) Time Altitude Azimuth Time Altitude Azimuth Time Altitude Azimuth
Lacrosse 5 rocket 3.1 16:09:29 10° NNW 16:11:52 15° NNE 16:14:20 10° NE
Cosmos 1743 Rocket 3.7 16:08:13 10° N 16:12:26 50° ENE 16:16:38 10° SSE
Meteor 1-20 Rocket 4.5 16:06:50 10° N 16:12:33 53° ENE 16:18:15 10° SSE
Okean O Rocket 3.3 16:12:19 10° E 16:14:31 14° ENE 16:16:43 10° NNE
USA 267 3.3 16:14:38 10° NE 16:21:13 86° NW 16:27:46 10° SW
H-2A R/B 2.7 16:18:41 10° SE 16:23:10 31° ENE 16:27:33 10° N
SJ 16-02 4.0 16:22:28 10° NW 16:26:01 24° W 16:29:33 10° SSW
Cosmos 1763 Rocket 3.4 16:21:40 10° SSW 16:26:44 85° ESE 16:31:52 10° NNE
CZ-4B R/B 3.0 16:23:24 10° S 16:27:29 80° WSW 16:31:22 10° NNW
USA 305 4.4 16:26:12 10° NW 16:29:35 23° N 16:32:46 11° NE
USA 276 2.9 16:26:48 10° WNW 16:29:51 51° SSW 16:32:53 10° SE
Cosmos 1656 4.4 16:26:28 10° NNW 16:31:55 60° WSW 16:37:25 10° S
Cosmos 1933 3.4 16:28:45 10° S 16:32:44 59° E 16:36:43 10° NNE
Cosmos 841 Rocket 3.9 16:28:22 10° S 16:33:13 42° ESE 16:38:03 10° NE
PSLV R/B 4.2 16:30:17 10° SE 16:33:41 37° ENE 16:37:09 10° N
USA 229 DEB 4.0 16:29:37 10° NW 16:37:01 88° NE 16:44:52 10° SE
USA 229 4.0 16:29:43 10° NW 16:37:07 88° NE 16:44:57 10° SE
Cosmos 1937 Rocket 3.5 16:33:00 10° NNW 16:38:19 63° ENE 16:43:35 10° SSE
Cosmos 1500 Rocket 3.8 16:36:32 10° NNW 16:40:58 75° W 16:45:20 10° S
Cosmos 1666 3.8 16:38:18 10° NNE 16:41:15 22° ENE 16:44:10 10° SE
Nadezhda 4 Rocket 4.5 16:36:34 10° NNW 16:42:50 67° W 16:49:05 10° S
SL-24 R/B - RUBIN 2 3.9 16:39:24 10° NNW 16:43:45 43° NE 16:47:53 10° ESE
Cosmos 2322 Rocket 3.8 16:42:01 10° N 16:44:59 14° NE 16:45:58 14° NE
FengYun 1-2 T 4.4 16:39:27 10° S 16:45:03 78° WSW 16:50:38 10° NNW
Cosmos 1697 Rocket 2.7 16:42:00 10° NNW 16:47:39 89° WSW 16:53:16 10° SSE
NOAA 6 4.1 16:43:18 10° SSE 16:48:27 87° WSW 16:53:37 10° NNW
Cosmos 372 Rocket 4.1 16:44:24 10° NNW 16:49:31 51° ENE 16:54:36 10° SE
Sich 1 2.9 16:46:28 10° N 16:50:44 63° E 16:55:00 10° SSE
Cosmos 2221 4.5 16:47:25 10° SW 16:51:10 29° WNW 16:54:57 10° NNW
Cosmos 1980 Rocket 2.3 16:46:25 10° NNW 16:51:58 54° ENE 16:57:29 10° SE
Cosmos 1805 Rocket 3.5 16:48:22 10° N 16:52:44 86° E 16:57:04 10° S
Cosmos 2369 3.7 16:48:12 10° NNW 16:53:56 70° ENE 16:59:38 10° SSE
USA 234 3.2 16:47:45 10° SE 16:54:18 86° NE 17:00:52 10° NW
CZ-4C R/B 3.1 16:51:30 10° NNW 16:58:27 53° NE 17:06:35 10° ESE
Cosmos 1092 Rocket 4.1 16:52:24 10° N 16:58:48 84° W 17:05:07 10° S
Cosmos 1812 3.0 16:56:06 10° SSE 16:59:45 43° E 17:02:42 15° NNE
Cosmos 1428 Rocket 4.4 16:55:22 10° N 17:01:32 89° E 17:07:42 10° S
USA 306 4.4 16:58:39 10° NW 17:02:04 23° N 17:03:42 18° NE
SL-16 R/B 3.3 16:58:46 10° N 17:03:10 22° NE 17:04:16 21° ENE
ISS -3.5 17:00:19 10° NW 17:03:39 51° NNE 17:04:58 31° E
deb Chang Zheng 4 3.8 16:59:52 10° SE 17:03:56 43° ENE 17:08:02 10° N
SMAP 3.7 16:59:57 10° S 17:04:31 59° W 17:09:08 10° NNW
MOS 1-B Rocket 4.1 16:59:42 10° NNE 17:05:36 64° ESE 17:12:20 10° S
Cosmos 2082 Rocket 2.2 17:00:07 10° SSW 17:05:45 69° ESE 17:10:43 14° NNE
Cosmos 1939 Rocket 4.1 17:01:51 10° S 17:05:49 46° W 17:09:47 10° NNW
NOSS 2-2 (D) 4.3 17:00:48 10° NW 17:06:03 73° NE 17:13:27 10° SE
NOSS 2-2 (E) 4.5 17:00:58 10° NW 17:06:25 86° NE 17:14:08 10° SE
Cosmos 44 Rocket 4.0 17:08:48 10° NNW 17:13:14 32° NE 17:14:23 28° ENE
Meteor 2-16 Rocket 4.4 17:09:19 10° N 17:15:25 65° E 17:21:29 10° SSE
Cosmos 2142 Rocket 4.4 17:11:38 10° S 17:17:43 71° E 17:23:55 10° NNE
Cosmos 2278 3.7 17:12:19 10° NNW 17:18:00 62° ENE 17:23:37 10° SE
Cosmos 540 Rocket 4.0 17:15:46 10° SW 17:20:46 57° WNW 17:25:50 10° NNE
USA 307 4.3 17:17:28 10° NW 17:20:57 24° N 17:21:44 22° NNE
ARGOS 3.1 17:18:36 10° SSE 17:23:56 64° ENE 17:29:17 10° N
Cosmos 2279 Rocket 3.9 17:19:07 10° S 17:25:19 77° E 17:31:31 10° N
Cosmos 1570 Rocket 3.9 17:20:12 10° S 17:25:23 65° ESE 17:28:35 23° NNE
COSMOS 2406 3.9 17:21:00 10° SW 17:26:37 53° WNW 17:32:10 10° NNE
COSMO-SKYMED 1 2.4 17:23:24 17° NNE 17:26:39 72° ESE 17:30:59 10° S
Cosmos 2298 Rocket 4.5 17:22:57 10° N 17:27:55 37° ENE 17:28:50 35° E
Cosmos 1833 Rocket 3.8 17:22:46 10° SW 17:28:02 40° WNW 17:33:21 10° NNE
Cosmos 1782 3.8 17:25:03 10° SSW 17:28:54 46° WNW 17:32:46 10° N
Cosmos 1814 Rocket 3.9 17:25:00 10° SSW 17:30:14 83° ESE 17:33:44 21° NNE
Cosmos 2266 Rocket 4.2 17:24:38 10° N 17:30:47 46° ENE 17:36:55 10° SSE
ATLAS 5 CENTAUR R/B 2.8 17:27:14 10° NW 17:33:07 33° NNE 17:33:07 33° NNE
Cosmos 921 Rocket 3.6 17:29:30 10° S 17:32:43 36° SE 17:32:43 36° SE
CZ-2C R/B 3.6 17:33:07 10° S 17:34:55 13° SSE 17:35:26 12° SSE
Helios 1B 4.4 17:32:06 20° NNE 17:35:02 86° E 17:39:22 10° SSW
Cosmos 1633 Rocket 2.9 17:31:31 10° N 17:35:55 87° E 17:40:18 10° S
Cosmos 1818 3.7 17:32:02 10° NNW 17:37:24 51° NE 17:38:50 41° E
GEOS 3 Rocket 3.9 17:37:58 40° ENE 17:38:48 44° NE 17:43:43 10° NNW
Meteor 2-6 Rocket 4.1 17:34:30 10° S 17:40:15 76° E 17:45:14 14° NNE
SJ-11-01 4.2 17:37:11 10° SSE 17:41:56 88° W 17:46:42 10° NNW
USA 308 4.3 17:39:58 10° NW 17:43:13 25° N 17:43:13 25° N
COSMOS 2455 3.3 17:38:08 10° SW 17:44:02 58° NW 17:48:14 20° NNE
CZ-2C R/B 2.6 17:40:51 10° N 17:46:03 78° WNW 17:51:13 10° SSW
CZ-4B R/B 3.4 17:40:45 10° S 17:46:09 69° WSW 17:51:30 10° NNW
Cosmos 1151 Rocket 3.6 17:43:37 10° SSW 17:47:52 58° W 17:51:27 15° N
Spot 2 4.5 17:46:44 33° SE 17:48:51 57° ENE 17:53:53 10° N
Okean O Rocket 1.8 17:45:50 10° S 17:50:16 73° WSW 17:54:45 10° NNW
Lacrosse 5 rocket 2.4 17:48:00 10° NW 17:50:36 33° N 17:50:36 33° N
Meteor 2-15 4.3 17:51:32 10° S 17:57:39 84° E 18:03:28 11° N
Cosmos 2208 Rocket 4.1 17:54:01 10° SSW 17:59:25 81° WNW 18:01:39 37° NNE
Meteor 1-10 Rocket 4.1 17:56:20 10° S 18:02:08 83° E 18:04:52 33° NNE
H-2A R/B 3.6 17:57:45 10° SSW 18:02:29 36° W 18:07:09 10° NNW
USA 267 4.1 18:01:03 27° NNE 18:03:47 39° NNW 18:09:43 10° W
Meteor 1-11 Rocket 3.6 17:58:23 10° N 18:04:00 69° ENE 18:09:42 10° SSE
Cosmos 1470 Rocket 3.6 18:00:31 10° N 18:04:59 80° W 18:09:27 10° S
Cosmos 1328 Rocket 4.2 18:01:04 10° SSW 18:05:25 54° WNW 18:07:30 28° NNW
Cosmos 2150 Rocket 4.0 18:00:15 10° NNW 18:04:47 63° NNE 18:04:47 63° NNE
Cosmos 1655 Rocket 3.9 18:00:45 10° N 18:07:11 89° E 18:13:33 10° S
Landsat 5 4.0 18:08:41 52° NW 18:09:06 55° WNW 18:12:59 10° SSW
Cosmos 2360 Rocket 3.8 18:05:05 10° N 18:07:10 20° N 18:07:10 20° N
Feng Yun 1-1 Rocket 4.5 18:09:38 10° S 18:15:33 76° WSW 18:21:27 10° NNW
ATLAS CENTAUR R/B 3.8 18:14:04 10° W 18:20:02 27° NW 18:20:43 26° NNW
Cosmos 1125 Rocket 3.9 18:18:15 10° NNW 18:22:14 53° NNW 18:22:14 53° NNW
Cosmos 2322 Rocket 3.2 18:24:28 10° NNW 18:27:49 36° N 18:27:49 36° N
Cosmos 1980 Rocket 4.4 18:31:09 10° NW 18:35:35 24° WSW 18:39:58 10° SSW
ATLAS 2AS CENTAUR R/B 4.4 18:33:03 10° NNW 18:37:27 20° N 18:37:27 20° N
ISS -0.4 18:37:24 10° WNW 18:37:58 13° W 18:37:58 13° W
CZ-4C R/B 3.9 18:40:05 10° NW 18:47:13 47° WSW 18:55:15 10° S
SL-16 R/B 3.0 18:42:10 10° NNW 18:46:11 46° NW 18:46:11 46° NW
Cosmos 2082 Rocket 4.2 18:45:59 10° W 18:50:23 22° NW 18:52:35 18° NNW
